FENGYUN 1C DEB

Satellite information

Favourite Embed

Satellite Type and Status

DEBRISIN ORBIT

Key statistics

Satellite FENGYUN 1C DEB at a glance.

Uptime

9556

Days in orbit

Revolutions

≈ 14.4

Per day

Orbit

SSO

Sun Synchronous Orbit

Inclination

98.8

Latest

Satellite identification and parameters

Extended collection of information and parameters for FENGYUN 1C DEB.

Object identification

Identified? True

Debris? True

Object name: FENGYUN 1C DEB

International designator: 1999-025CT

Object number (NORAD): 29801

Object ID (CCSDS): 29801

Country: PEOPLES REPUBLIC OF CHINA (PRC)

Current information (Y/N): Y

RCS size: MEDIUM

Orbital parameters

Period: 100.301 minutes

Inclination: 98.8073 deg

SMA: 7150.931 km

Apoapsis: 847.611 km

Periapsis: 697.981 km

RAAN: 86.7588 deg

Eccentricy: 0.0104623

Argument of periapsis: 13.21 deg

Mean anomaly: 1.7134 deg

Mean motion: 14.35684141 rev/day

Mean motion (dot): 0.00000308 rev/day2

B* drag term: 0.00011609 1/REarth

Two-line elements (TLE)

Creation date: July 8, 2025, 2:27 a.m.

Reference frame: TEME

Reference center: EARTH

Epoch: July 7, 2025, 10:43 p.m. UTC

TLE line 0: 0 FENGYUN 1C DEB

TLE line 1: 1 29801U 99025CT 25188.94712537 .00000308 00000-0 11609-3 0 9998

TLE line 2: 2 29801 98.8073 86.7588 0104623 13.2100 1.7134 14.35684141966770

Live tracking on map

Real-time ground track for satellite FENGYUN 1C DEB.

In-orbit conjunctions

A list of the most updated potential collisions computed for object FENGYUN 1C DEB.

Target Orbit TCA Probability of collision Miss distance Type
CZ-6A DEB LEO 2025-02-21 19:34:16 0.001996063 173.0 (m) DEBRIS
CZ-6A DEB SSO 2024-12-27 19:08:53 0.0001789827 378.0 (m) DEBRIS
CZ-6A DEB LEO 2024-10-07 10:21:02 0.001104416 482.0 (m) DEBRIS

Associated space launch

Chinese polar orbiting meteorological satellite

FENGYUN 1C DEB was lifted into orbit during the mission ‘Long March 4B | Feng Yun 1C’, on board a Long March 4B space rocket.

The launch took place on May 10, 1999, 1:33 a.m. from Launch Complex 7.

For more information about the launch, click the button.

Launch to space Long March 4B | Feng Yun 1C
Long March 4B | Feng Yun 1C

Agency: N/A

Status: Launch Successful

Launch date: May 10, 1999, 1:33 a.m. UTC

Rocket: Long March 4B

Launch pad: Launch Complex 7

Location: Taiyuan Satellite Launch Center, People's Republic of China

...

Latest news about this satellite

There are no fresh news available about this satellite. Check back as we update our databases every day.


Newsletter sign-up

Weekly statistics, charts and insights to help you stay on top of the space industry.